Location: Castle
(40.7167°S, 175.9500°E)
Time: 18:38:17
(UTC+00:00)

ATLAS 3B R/B - Pass Details

Date: 04 August 2024
Orbit: 940 x 1254 km, 63.8° (Epoch: 17 September)

Event Time Altitude Azimuth Distance (km) Brightness Sun altitude
Rises 18:04:12 0° 344° (NNW) 3,966 5.6 -14.3°
Reaches altitude 10° 18:07:01 10° 348° (NNW) 2,967 5.0 -13.8°
Maximum altitude 18:13:48 54° 63° (ENE) 1,265 3.5 -12.5°
Drops below altitude 10° 18:20:09 10° 137° (SE) 2,787 5.3 -11.4°
Sets 18:22:43 0° 141° (SE) 3,709 5.9 -10.9°
